EZY825U EGKK-EGPE

Flight info

Callsign EZY825U
Flight time 1h 26m
Altitude 36000
Route LAM L10 BPK UN601 RIBEL DCT ABEVI DCT INPIP DCT TLA DCT FOYLE N560 NESDI DCT GUSSI
Aircraft A21N/M-SDE2E3FGHIJ1RWXYZ/LB1G1

Departure

Time 2026-05-08 06:22
Airport London Gatwick Airport (EGKK)

Arrival

Time 2026-05-08 07:48
Airport Inverness Airport (EGPE)
Time Latitude Longitude Altitude Speed Heading
2026-05-08 05:24 51.15466 -0.17089 210 ft 0 kts 348°
2026-05-08 06:06 51.15462 -0.17088 210 ft 2 kts 347°
2026-05-08 06:07 51.15446 -0.17080 216 ft 2 kts 335°
2026-05-08 06:07 51.15432 -0.17067 213 ft 2 kts 318°
2026-05-08 06:07 51.15422 -0.17045 212 ft 2 kts 281°
2026-05-08 06:07 51.15422 -0.17023 210 ft 1 kts 256°
2026-05-08 06:08 51.15423 -0.17022 210 ft 0 kts 256°
2026-05-08 06:08 51.15423 -0.17021 210 ft 0 kts 256°
2026-05-08 06:14 51.15422 -0.17024 210 ft 1 kts 256°
2026-05-08 06:14 51.15417 -0.17057 218 ft 5 kts 256°
2026-05-08 06:14 51.15406 -0.17127 215 ft 8 kts 252°
2026-05-08 06:15 51.15380 -0.17232 213 ft 12 kts 253°
2026-05-08 06:15 51.15338 -0.17360 216 ft 14 kts 210°
2026-05-08 06:15 51.15296 -0.17505 213 ft 16 kts 253°
2026-05-08 06:15 51.15268 -0.17686 210 ft 18 kts 256°
2026-05-08 06:16 51.15239 -0.17882 212 ft 19 kts 260°
2026-05-08 06:16 51.15213 -0.18094 215 ft 20 kts 258°
2026-05-08 06:16 51.15184 -0.18321 215 ft 21 kts 262°
2026-05-08 06:16 51.15155 -0.18560 214 ft 23 kts 258°
2026-05-08 06:17 51.15084 -0.19075 218 ft 25 kts 257°
2026-05-08 06:17 51.15045 -0.19355 211 ft 26 kts 257°
2026-05-08 06:17 51.15005 -0.19647 211 ft 28 kts 257°
2026-05-08 06:18 51.14970 -0.19902 216 ft 22 kts 258°
2026-05-08 06:18 51.14936 -0.20148 212 ft 23 kts 257°
2026-05-08 06:18 51.14901 -0.20406 212 ft 24 kts 258°
2026-05-08 06:18 51.14864 -0.20679 210 ft 26 kts 257°
2026-05-08 06:19 51.14823 -0.20964 214 ft 27 kts 257°
2026-05-08 06:19 51.14790 -0.21176 212 ft 16 kts 251°
2026-05-08 06:19 51.14772 -0.21263 210 ft 6 kts 252°
2026-05-08 06:19 51.14759 -0.21339 210 ft 8 kts 255°
2026-05-08 06:20 51.14715 -0.21401 210 ft 10 kts 183°
2026-05-08 06:20 51.14645 -0.21344 214 ft 13 kts 142°
2026-05-08 06:20 51.14559 -0.21287 214 ft 15 kts 129°
2026-05-08 06:20 51.14518 -0.21191 216 ft 10 kts 84°
2026-05-08 06:21 51.14522 -0.21152 212 ft 0 kts 77°
2026-05-08 06:22 51.14577 -0.20768 214 ft 72 kts 77°
2026-05-08 06:22 51.14728 -0.19678 221 ft 131 kts 77°
2026-05-08 06:22 51.14957 -0.17994 307 ft 164 kts 78°
2026-05-08 06:22 51.15193 -0.16317 1084 ft 149 kts 78°
2026-05-08 06:23 51.15429 -0.14671 1547 ft 158 kts 82°
2026-05-08 06:23 51.15647 -0.12902 2126 ft 167 kts 82°
2026-05-08 06:23 51.15899 -0.11055 2800 ft 174 kts 81°
2026-05-08 06:23 51.16164 -0.09139 3496 ft 184 kts 80°
2026-05-08 06:24 51.16494 -0.07115 3970 ft 207 kts 70°
2026-05-08 06:24 51.17335 -0.05035 4566 ft 227 kts 53°
2026-05-08 06:24 51.18377 -0.02938 4937 ft 256 kts 53°
2026-05-08 06:24 51.19511 -0.00626 5055 ft 269 kts 53°
2026-05-08 06:25 51.20662 0.01733 5050 ft 269 kts 53°
2026-05-08 06:25 51.21800 0.04088 5109 ft 268 kts 53°
2026-05-08 06:25 51.22940 0.06456 5580 ft 270 kts 53°
2026-05-08 06:25 51.24071 0.08807 6174 ft 272 kts 53°
2026-05-08 06:26 51.25052 0.11442 6790 ft 274 kts 71°
2026-05-08 06:26 51.25499 0.14404 7413 ft 278 kts 80°
2026-05-08 06:26 51.25838 0.17471 8049 ft 282 kts 80°
2026-05-08 06:26 51.26179 0.20543 8693 ft 287 kts 80°
2026-05-08 06:27 51.26544 0.23747 9365 ft 292 kts 79°
2026-05-08 06:27 51.26913 0.26922 9890 ft 297 kts 79°
2026-05-08 06:27 51.27349 0.30164 10487 ft 300 kts 72°
2026-05-08 06:27 51.28326 0.33089 11101 ft 301 kts 48°
2026-05-08 06:28 51.29985 0.35153 11746 ft 301 kts 23°
2026-05-08 06:28 51.32009 0.35933 12414 ft 301 kts 359°
2026-05-08 06:28 51.34056 0.35354 13104 ft 301 kts 338°
2026-05-08 06:28 51.35984 0.34071 13865 ft 306 kts 334°
2026-05-08 06:29 51.37945 0.32689 14713 ft 311 kts 335°
2026-05-08 06:29 51.39971 0.31294 15453 ft 315 kts 335°
2026-05-08 06:29 51.42009 0.29926 16179 ft 320 kts 336°
2026-05-08 06:29 51.44080 0.28560 16898 ft 324 kts 336°
2026-05-08 06:30 51.46183 0.27184 17614 ft 329 kts 336°
2026-05-08 06:30 51.48320 0.25789 18315 ft 334 kts 336°
2026-05-08 06:30 51.50483 0.24380 18961 ft 338 kts 336°
2026-05-08 06:30 51.52663 0.22961 19599 ft 340 kts 336°
2026-05-08 06:31 51.54871 0.21525 20258 ft 343 kts 336°
2026-05-08 06:31 51.57089 0.20077 20914 ft 345 kts 336°
2026-05-08 06:31 51.59323 0.18609 21569 ft 348 kts 336°
2026-05-08 06:31 51.61566 0.17138 22216 ft 350 kts 336°
2026-05-08 06:32 51.63767 0.15455 22814 ft 350 kts 325°
2026-05-08 06:32 51.65581 0.12871 23336 ft 352 kts 306°
2026-05-08 06:32 51.66989 0.09580 23626 ft 362 kts 300°
2026-05-08 06:32 51.68342 0.06079 23829 ft 375 kts 300°
2026-05-08 06:33 51.69748 0.02465 24003 ft 388 kts 300°
2026-05-08 06:33 51.71191 -0.01197 24339 ft 394 kts 301°
2026-05-08 06:33 51.72679 -0.04937 24811 ft 397 kts 301°
2026-05-08 06:33 51.74219 -0.08650 25283 ft 401 kts 306°
2026-05-08 06:34 51.76226 -0.11879 25731 ft 407 kts 322°
2026-05-08 06:34 51.78639 -0.14336 26196 ft 411 kts 328°
2026-05-08 06:34 51.81123 -0.16644 26640 ft 414 kts 328°
2026-05-08 06:34 51.83587 -0.18943 27033 ft 416 kts 328°
2026-05-08 06:35 51.86100 -0.21319 27453 ft 419 kts 327°
2026-05-08 06:35 51.88620 -0.23708 27868 ft 421 kts 327°
2026-05-08 06:35 51.91155 -0.26122 28273 ft 424 kts 327°
2026-05-08 06:35 51.93702 -0.28557 28669 ft 426 kts 327°
2026-05-08 06:36 51.96264 -0.31007 29050 ft 429 kts 327°
2026-05-08 06:36 51.98838 -0.33479 29422 ft 431 kts 327°
2026-05-08 06:36 52.01426 -0.35964 29797 ft 433 kts 327°
2026-05-08 06:36 52.04031 -0.38468 30162 ft 436 kts 327°
2026-05-08 06:37 52.06643 -0.40989 30471 ft 438 kts 327°
2026-05-08 06:37 52.09261 -0.43524 30795 ft 439 kts 327°
2026-05-08 06:37 52.11894 -0.46076 31121 ft 441 kts 327°
2026-05-08 06:37 52.14530 -0.48629 31439 ft 443 kts 327°
2026-05-08 06:38 52.17185 -0.51199 31742 ft 444 kts 327°
2026-05-08 06:38 52.19848 -0.53774 32063 ft 446 kts 327°
2026-05-08 06:38 52.22521 -0.56367 32356 ft 447 kts 327°
2026-05-08 06:38 52.25189 -0.58975 32741 ft 446 kts 327°
2026-05-08 06:39 52.27846 -0.61568 33156 ft 444 kts 327°
2026-05-08 06:39 52.30498 -0.64149 33535 ft 443 kts 327°
2026-05-08 06:39 52.33136 -0.66728 33907 ft 441 kts 327°
2026-05-08 06:39 52.35762 -0.69304 34226 ft 440 kts 327°
2026-05-08 06:40 52.38389 -0.71874 34474 ft 439 kts 327°
2026-05-08 06:40 52.41007 -0.74441 34713 ft 439 kts 327°
2026-05-08 06:40 52.43633 -0.77019 34948 ft 439 kts 327°
2026-05-08 06:40 52.46242 -0.79593 35181 ft 439 kts 327°
2026-05-08 06:41 52.48857 -0.82176 35415 ft 438 kts 327°
2026-05-08 06:41 52.51469 -0.84751 35628 ft 438 kts 327°
2026-05-08 06:41 52.54077 -0.87327 35835 ft 437 kts 326°
2026-05-08 06:41 52.56680 -0.89912 36036 ft 437 kts 326°
2026-05-08 06:42 52.61892 -0.95080 36094 ft 437 kts 327°
2026-05-08 06:42 52.67095 -1.00258 36053 ft 436 kts 326°
2026-05-08 06:43 52.72278 -1.05456 36078 ft 436 kts 326°
2026-05-08 06:43 52.77433 -1.10597 36083 ft 436 kts 326°
2026-05-08 06:44 52.82634 -1.15812 36085 ft 435 kts 326°
2026-05-08 06:44 52.87794 -1.20994 36086 ft 435 kts 326°
2026-05-08 06:45 52.92952 -1.26202 36087 ft 434 kts 326°
2026-05-08 06:45 52.98096 -1.31421 36083 ft 434 kts 326°
2026-05-08 06:46 53.03252 -1.36661 36084 ft 433 kts 326°
2026-05-08 06:46 53.07563 -1.41039 36083 ft 433 kts 326°
2026-05-08 06:47 53.12701 -1.46275 36088 ft 433 kts 326°
2026-05-08 06:47 53.17826 -1.51516 36084 ft 432 kts 326°
2026-05-08 06:48 53.22923 -1.56735 36092 ft 432 kts 326°
2026-05-08 06:48 53.28043 -1.62006 36088 ft 432 kts 326°
2026-05-08 06:49 53.33156 -1.67282 36089 ft 432 kts 326°
2026-05-08 06:49 53.38268 -1.72573 36080 ft 432 kts 326°
2026-05-08 06:50 53.43376 -1.77865 36084 ft 432 kts 325°
2026-05-08 06:50 53.48481 -1.83166 36083 ft 431 kts 325°
2026-05-08 06:51 53.53573 -1.88489 36090 ft 431 kts 325°
2026-05-08 06:51 53.58670 -1.93814 36084 ft 431 kts 325°
2026-05-08 06:52 53.63755 -1.99148 36087 ft 430 kts 325°
2026-05-08 06:52 53.68833 -2.04507 36093 ft 430 kts 325°
2026-05-08 06:53 53.73923 -2.09812 36083 ft 431 kts 328°
2026-05-08 06:53 53.79455 -2.13864 36086 ft 434 kts 335°
2026-05-08 06:54 53.85069 -2.17657 36088 ft 434 kts 335°
2026-05-08 06:54 53.90659 -2.21478 36089 ft 433 kts 334°
2026-05-08 06:55 53.96254 -2.25311 36091 ft 433 kts 334°
2026-05-08 06:55 54.01836 -2.29181 36087 ft 433 kts 334°
2026-05-08 06:56 54.07423 -2.33043 36090 ft 434 kts 334°
2026-05-08 06:56 54.13018 -2.36921 36089 ft 434 kts 334°
2026-05-08 06:57 54.18608 -2.40789 36089 ft 434 kts 334°
2026-05-08 06:57 54.24199 -2.44662 36087 ft 434 kts 334°
2026-05-08 06:58 54.29796 -2.48563 36085 ft 434 kts 334°
2026-05-08 06:58 54.35392 -2.52487 36085 ft 434 kts 334°
2026-05-08 06:59 54.40983 -2.56410 36087 ft 435 kts 334°
2026-05-08 06:59 54.46591 -2.60357 36083 ft 435 kts 334°
2026-05-08 07:00 54.52189 -2.64314 36078 ft 435 kts 334°
2026-05-08 07:00 54.57787 -2.68283 36080 ft 435 kts 333°
2026-05-08 07:01 54.63383 -2.72261 36076 ft 435 kts 333°
2026-05-08 07:01 54.68981 -2.76238 36076 ft 435 kts 333°
2026-05-08 07:02 54.74589 -2.80251 36069 ft 436 kts 333°
2026-05-08 07:02 54.80196 -2.84263 36063 ft 436 kts 333°
2026-05-08 07:03 54.85799 -2.88310 36058 ft 437 kts 333°
2026-05-08 07:03 54.91413 -2.92369 36055 ft 437 kts 333°
2026-05-08 07:04 54.97027 -2.96422 36050 ft 438 kts 333°
2026-05-08 07:04 55.02617 -3.00486 36049 ft 438 kts 333°
2026-05-08 07:05 55.08243 -3.04572 36051 ft 439 kts 333°
2026-05-08 07:05 55.13881 -3.08695 36049 ft 439 kts 332°
2026-05-08 07:06 55.19432 -3.12758 36055 ft 440 kts 333°
2026-05-08 07:06 55.25081 -3.16921 36047 ft 441 kts 333°
2026-05-08 07:07 55.30742 -3.21087 36035 ft 441 kts 332°
2026-05-08 07:07 55.36407 -3.25274 36031 ft 442 kts 332°
2026-05-08 07:08 55.42074 -3.29478 36036 ft 443 kts 332°
2026-05-08 07:08 55.47758 -3.33715 36024 ft 442 kts 331°
2026-05-08 07:09 55.50370 -3.36257 36028 ft 436 kts 320°
2026-05-08 07:09 55.52773 -3.39660 36030 ft 432 kts 314°
2026-05-08 07:09 55.57252 -3.46758 36025 ft 433 kts 313°
2026-05-08 07:10 55.61733 -3.53863 36018 ft 433 kts 313°
2026-05-08 07:10 55.66237 -3.60967 36021 ft 434 kts 313°
2026-05-08 07:11 55.70736 -3.68102 36018 ft 434 kts 313°
2026-05-08 07:11 55.75227 -3.75240 36019 ft 433 kts 313°
2026-05-08 07:12 55.79720 -3.82400 36014 ft 433 kts 313°
2026-05-08 07:12 55.84185 -3.89531 35497 ft 427 kts 313°
2026-05-08 07:13 55.86383 -3.93049 34983 ft 424 kts 313°
2026-05-08 07:13 55.88568 -3.96549 34460 ft 420 kts 312°
2026-05-08 07:13 55.90725 -4.00022 33935 ft 417 kts 312°
2026-05-08 07:13 55.92841 -4.03437 33321 ft 414 kts 312°
2026-05-08 07:14 55.94995 -4.06915 32715 ft 410 kts 311°
2026-05-08 07:14 55.97074 -4.10276 32164 ft 407 kts 311°
2026-05-08 07:14 55.99160 -4.13648 31608 ft 404 kts 311°
2026-05-08 07:14 56.01266 -4.17056 31046 ft 401 kts 311°
2026-05-08 07:15 56.03295 -4.20346 30531 ft 397 kts 311°
2026-05-08 07:15 56.05325 -4.23651 29996 ft 394 kts 311°
2026-05-08 07:15 56.07341 -4.26942 29400 ft 391 kts 311°
2026-05-08 07:15 56.09350 -4.30210 28814 ft 388 kts 311°
2026-05-08 07:16 56.11361 -4.33414 28240 ft 388 kts 315°
2026-05-08 07:16 56.13664 -4.35980 27670 ft 395 kts 330°
2026-05-08 07:16 56.16326 -4.37346 27105 ft 403 kts 348°
2026-05-08 07:16 56.19150 -4.37326 26553 ft 409 kts
2026-05-08 07:17 56.21967 -4.36626 26004 ft 408 kts
2026-05-08 07:17 56.24765 -4.35862 25467 ft 406 kts
2026-05-08 07:17 56.27556 -4.35143 24938 ft 405 kts
2026-05-08 07:17 56.30340 -4.34455 24412 ft 403 kts
2026-05-08 07:18 56.33110 -4.33777 23888 ft 400 kts
2026-05-08 07:18 56.35864 -4.33123 23350 ft 399 kts
2026-05-08 07:18 56.38614 -4.32474 22764 ft 397 kts
2026-05-08 07:18 56.41341 -4.31839 22182 ft 395 kts
2026-05-08 07:19 56.44056 -4.31202 21632 ft 393 kts
2026-05-08 07:19 56.46760 -4.30560 21074 ft 390 kts
2026-05-08 07:19 56.49446 -4.29908 20544 ft 388 kts
2026-05-08 07:19 56.52112 -4.29276 20014 ft 385 kts
2026-05-08 07:20 56.54763 -4.28649 19505 ft 382 kts
2026-05-08 07:20 56.57387 -4.28027 19012 ft 379 kts
2026-05-08 07:20 56.59993 -4.27403 18526 ft 377 kts
2026-05-08 07:20 56.62582 -4.26782 18004 ft 374 kts
2026-05-08 07:21 56.65155 -4.26168 17464 ft 371 kts
2026-05-08 07:21 56.67705 -4.25554 16940 ft 368 kts
2026-05-08 07:21 56.70207 -4.24949 16425 ft 365 kts
2026-05-08 07:21 56.72716 -4.24345 15930 ft 363 kts
2026-05-08 07:22 56.75241 -4.23732 15432 ft 360 kts
2026-05-08 07:22 56.77715 -4.23125 14952 ft 357 kts
2026-05-08 07:22 56.80135 -4.22529 14483 ft 355 kts
2026-05-08 07:22 56.82605 -4.21916 14021 ft 352 kts
2026-05-08 07:23 56.84990 -4.21332 13555 ft 350 kts
2026-05-08 07:23 56.87418 -4.20742 13140 ft 344 kts
2026-05-08 07:23 56.89769 -4.20167 12835 ft 336 kts
2026-05-08 07:23 56.92062 -4.19604 12578 ft 329 kts
2026-05-08 07:24 56.94272 -4.19053 12325 ft 321 kts
2026-05-08 07:24 56.96406 -4.18541 11965 ft 318 kts
2026-05-08 07:24 56.98599 -4.18022 11554 ft 318 kts
2026-05-08 07:24 57.00788 -4.17493 11135 ft 317 kts
2026-05-08 07:25 57.02974 -4.16965 10716 ft 316 kts
2026-05-08 07:25 57.05153 -4.16435 10299 ft 316 kts
2026-05-08 07:25 57.09497 -4.15373 9449 ft 315 kts
2026-05-08 07:26 57.11661 -4.14837 9009 ft 314 kts
2026-05-08 07:26 57.13828 -4.14301 8567 ft 314 kts
2026-05-08 07:26 57.15978 -4.13762 8204 ft 309 kts
2026-05-08 07:26 57.18088 -4.13232 7902 ft 304 kts
2026-05-08 07:27 57.20164 -4.12712 7618 ft 298 kts
2026-05-08 07:27 57.22181 -4.11902 7332 ft 297 kts 14°
2026-05-08 07:27 57.24128 -4.10659 7039 ft 296 kts 16°
2026-05-08 07:27 57.26052 -4.09374 6728 ft 292 kts 16°
2026-05-08 07:28 57.27958 -4.08100 6411 ft 292 kts 15°
2026-05-08 07:28 57.29869 -4.06828 6044 ft 289 kts 16°
2026-05-08 07:28 57.31759 -4.05575 5703 ft 288 kts 15°
2026-05-08 07:28 57.33640 -4.04336 5375 ft 287 kts 15°
2026-05-08 07:29 57.35519 -4.03095 5071 ft 286 kts 15°
2026-05-08 07:29 57.37379 -4.01870 4769 ft 284 kts 15°
2026-05-08 07:29 57.39244 -4.00641 4473 ft 284 kts 15°
2026-05-08 07:29 57.41099 -3.99417 4161 ft 282 kts 15°
2026-05-08 07:30 57.42943 -3.98195 3860 ft 280 kts 15°
2026-05-08 07:30 57.44767 -3.96984 3537 ft 278 kts 16°
2026-05-08 07:30 57.46577 -3.95779 3226 ft 274 kts 15°
2026-05-08 07:30 57.48365 -3.94591 2908 ft 273 kts 16°
2026-05-08 07:31 57.50147 -3.93404 2589 ft 271 kts 16°
2026-05-08 07:31 57.51850 -3.91968 2260 ft 271 kts 34°
2026-05-08 07:31 57.53197 -3.89554 2034 ft 265 kts 48°
2026-05-08 07:31 57.53983 -3.87867 1968 ft 257 kts 50°
2026-05-08 07:32 57.55112 -3.85396 1949 ft 244 kts 50°
2026-05-08 07:32 57.56172 -3.83063 1938 ft 227 kts 50°
2026-05-08 07:32 57.57276 -3.80990 1940 ft 224 kts 30°
2026-05-08 07:32 57.58713 -3.80043 1975 ft 219 kts 359°
2026-05-08 07:33 57.60161 -3.80460 1967 ft 207 kts 330°
2026-05-08 07:33 57.61293 -3.81954 1991 ft 191 kts 304°
2026-05-08 07:33 57.61865 -3.83915 2018 ft 159 kts 280°
2026-05-08 07:33 57.62013 -3.85798 1986 ft 137 kts 265°
2026-05-08 07:34 57.61868 -3.87408 2003 ft 122 kts 244°
2026-05-08 07:34 57.61450 -3.88774 1990 ft 122 kts 236°
2026-05-08 07:34 57.60954 -3.90054 1963 ft 121 kts 232°
2026-05-08 07:34 57.60436 -3.91268 1838 ft 121 kts 231°
2026-05-08 07:35 57.59894 -3.92477 1676 ft 122 kts 230°
2026-05-08 07:35 57.59345 -3.93681 1509 ft 121 kts 229°
2026-05-08 07:35 57.58797 -3.94887 1329 ft 120 kts 230°
2026-05-08 07:35 57.58267 -3.96079 1205 ft 121 kts 227°
2026-05-08 07:36 57.57695 -3.97234 975 ft 120 kts 228°
2026-05-08 07:36 57.57169 -3.98455 738 ft 123 kts 229°
2026-05-08 07:36 57.56576 -3.99670 652 ft 124 kts 229°
2026-05-08 07:36 57.56029 -4.00896 459 ft 126 kts 230°
2026-05-08 07:37 57.55466 -4.02124 297 ft 126 kts 229°
2026-05-08 07:37 57.54893 -4.03361 108 ft 126 kts 229°
2026-05-08 07:37 57.54338 -4.04565 65 ft 125 kts 230°
2026-05-08 07:37 57.53748 -4.05937 704 ft 130 kts 232°
2026-05-08 07:38 57.53138 -4.07160 1306 ft 128 kts 226°
2026-05-08 07:38 57.52547 -4.08389 1768 ft 125 kts 229°
2026-05-08 07:38 57.52002 -4.09626 2246 ft 124 kts 237°
2026-05-08 07:38 57.51869 -4.11222 2726 ft 135 kts 272°
2026-05-08 07:39 57.52482 -4.12864 2933 ft 187 kts 318°
2026-05-08 07:39 57.53916 -4.13556 3023 ft 239 kts 358°
2026-05-08 07:39 57.55532 -4.12590 3047 ft 250 kts 29°
2026-05-08 07:39 57.56850 -4.10437 3035 ft 254 kts 45°
2026-05-08 07:40 57.58049 -4.08022 3013 ft 254 kts 46°
2026-05-08 07:40 57.59230 -4.05587 2999 ft 252 kts 47°
2026-05-08 07:40 57.60407 -4.03169 2981 ft 252 kts 47°
2026-05-08 07:40 57.61596 -4.00737 2983 ft 253 kts 46°
2026-05-08 07:41 57.62739 -3.98384 2965 ft 236 kts 46°
2026-05-08 07:41 57.64015 -3.96614 2964 ft 228 kts 22°
2026-05-08 07:41 57.65452 -3.95396 2978 ft 226 kts 19°
2026-05-08 07:41 57.66917 -3.94417 2964 ft 220 kts 356°
2026-05-08 07:42 57.68402 -3.94721 2984 ft 215 kts 346°
2026-05-08 07:42 57.69908 -3.94487 2976 ft 226 kts 17°
2026-05-08 07:42 57.71164 -3.92728 2976 ft 231 kts 56°
2026-05-08 07:42 57.71692 -3.89953 2980 ft 227 kts 93°
2026-05-08 07:43 57.71363 -3.87182 2967 ft 215 kts 127°
2026-05-08 07:43 57.70396 -3.85220 2965 ft 201 kts 157°
2026-05-08 07:43 57.69134 -3.84411 2969 ft 188 kts 183°
2026-05-08 07:43 57.67879 -3.84712 2967 ft 180 kts 201°
2026-05-08 07:44 57.66667 -3.85343 2966 ft 182 kts 200°
2026-05-08 07:44 57.65451 -3.85962 2898 ft 180 kts 200°
2026-05-08 07:44 57.64250 -3.86598 2693 ft 178 kts 201°
2026-05-08 07:44 57.63081 -3.87264 2499 ft 169 kts 204°
2026-05-08 07:45 57.62097 -3.88235 2321 ft 152 kts 218°
2026-05-08 07:45 57.61377 -3.89430 2153 ft 128 kts 226°
2026-05-08 07:45 57.60797 -3.90598 1956 ft 121 kts 229°
2026-05-08 07:45 57.60228 -3.91781 1780 ft 121 kts 229°
2026-05-08 07:46 57.59683 -3.92955 1602 ft 122 kts 229°
2026-05-08 07:46 57.59132 -3.94148 1437 ft 120 kts 229°
2026-05-08 07:46 57.58588 -3.95333 1257 ft 121 kts 229°
2026-05-08 07:46 57.58033 -3.96517 1086 ft 122 kts 227°
2026-05-08 07:47 57.57483 -3.97723 849 ft 121 kts 230°
2026-05-08 07:47 57.56962 -3.98920 678 ft 122 kts 227°
2026-05-08 07:47 57.56401 -4.00088 582 ft 121 kts 230°
2026-05-08 07:47 57.55850 -4.01289 411 ft 122 kts 229°
2026-05-08 07:48 57.55292 -4.02498 223 ft 122 kts 229°
2026-05-08 07:48 57.54731 -4.03707 70 ft 122 kts 230°
2026-05-08 07:48 57.54207 -4.04847 40 ft 94 kts 229°
2026-05-08 07:48 57.53961 -4.05385 42 ft 33 kts 230°
2026-05-08 07:49 57.53808 -4.05714 44 ft 32 kts 228°
2026-05-08 07:49 57.53714 -4.05929 43 ft 0 kts 245°
2026-05-08 07:49 57.53714 -4.05935 43 ft 2 kts 272°
2026-05-08 07:49 57.53718 -4.05972 43 ft 4 kts 283°
2026-05-08 07:50 57.53736 -4.06036 43 ft 7 kts 306°
2026-05-08 07:50 57.53769 -4.06122 45 ft 9 kts 308°
2026-05-08 07:50 57.53800 -4.06175 44 ft 5 kts 332°
2026-05-08 07:50 57.53839 -4.06178 44 ft 7 kts 359°
2026-05-08 07:51 57.53892 -4.06172 44 ft 9 kts
2026-05-08 07:51 57.53958 -4.06162 44 ft 11 kts
2026-05-08 07:51 57.53986 -4.06198 43 ft 5 kts 272°
2026-05-08 07:51 57.53989 -4.06252 44 ft 0 kts 276°